Weather History for Casper, WY

Change the Weather History Date:

Thursday, January 12, 2012

  Actual Average Record
Temperature  
Mean Temperature 15 °F 25 °F  
Max Temperature 24 °F 35 °F 57 °F (1953)
Min Temperature 6 °F 14 °F -25 °F (1963)
Degree Days  
Heating Degree Days 50 40  
Month to date heating degree days 449 485  
Since 1 July heating degree days 3349 3614  
Cooling Degree Days 0 0  
Month to date cooling degree days 0 0  
Year to date cooling degree days 0 0  
Moisture  
Dew Point 2 °F    
Average Humidity 55    
Maximum Humidity 61    
Minimum Humidity 48    
Precipitation  
Precipitation 0.00 in 0.02 in 0.53 in (1972)
Month to date precipitation 0.18 0.20  
Year to date precipitation 0.18 0.20  
Snow  
Snow 0.00 in 0.30 in - ()
Month to date snowfall 3.7 3.7  
Since 1 July snowfall 30.4 34.2  
Snow Depth 3.00 in    
Sea Level Pressure  
Sea Level Pressure 30.29 in    
Wind  
Wind Speed 16 mph (SW)    
Max Wind Speed 25 mph    
Max Gust Speed 37 mph    
Visibility 10 miles    
Events      
T = Trace of Precipitation, MM = Missing Value Source: NWS Daily Summary

Daily Weather History Graph

Daily Weather History Graph

Search for Another Location

Airport:

Trip Planner

Search our weather history database for the weather conditions in past years. The results will help you decide how hot, cold, wet, or windy it might be!

Date:

Astronomy

Jan. 12, 2012 Rise Set
Actual Time 7:35 AM MST 4:53 PM MST
Civil Twilight 7:03 AM MST 5:24 PM MST
Nautical Twilight 6:28 AM MST 5:59 PM MST
Astronomical Twilight 5:54 AM MST 6:33 PM MST
Moon 9:08 PM MST (1/12) 9:14 AM MST (1/12)
Length of Visible Light 10h 20m
Length of Day
9h 17m
Waning Gibbous, 86% of the Moon is Illuminated
Jan 12
Waning Gibbous
Jan 16
Last Quarter
Jan 23
New
Jan 30
First Quarter
Feb 7
Full

Hourly Weather History & Observations

Time (MST) Temp. Windchill Dew Point Humidity Pressure Visibility Wind Dir Wind Speed Gust Speed Precip Events Conditions
12:53 AM 10.9 °F -6.5 °F -4.0 °F 51% 30.39 in 10.0 mi WSW 17.3 mph - N/A   Clear
1:53 AM 12.0 °F -6.0 °F -4.0 °F 49% 30.37 in 10.0 mi SW 19.6 mph - N/A   Clear
2:53 AM 6.8 °F -8.6 °F -5.8 °F 56% 30.15 in 10.0 mi WSW 11.5 mph - N/A   Clear
3:53 AM 10.9 °F -5.9 °F -4.0 °F 51% 30.37 in 10.0 mi WSW 16.1 mph - N/A   Clear
4:53 AM 12.0 °F -3.4 °F -2.9 °F 51% 30.38 in 10.0 mi WSW 13.8 mph - N/A   Clear
5:53 AM 12.9 °F -2.2 °F -2.0 °F 51% 30.39 in 10.0 mi SW 13.8 mph 20.7 mph N/A   Clear
6:53 AM 14.0 °F -3.0 °F -2.0 °F 49% 30.39 in 10.0 mi SW 18.4 mph 23.0 mph N/A   Clear
7:53 AM 12.2 °F -3.1 °F -0.4 °F 57% 30.12 in 10.0 mi SW 13.8 mph - N/A   Clear
8:53 AM 15.1 °F -2.9 °F 1.9 °F 56% 30.35 in 10.0 mi SSW 21.9 mph 27.6 mph N/A   Clear
9:53 AM 16.0 °F -2.8 °F 3.0 °F 57% 30.34 in 10.0 mi SW 25.3 mph - N/A   Clear
10:53 AM 18.0 °F -0.2 °F 5.0 °F 57% 30.32 in 10.0 mi SSW 25.3 mph 33.4 mph N/A   Partly Cloudy
11:53 AM 19.4 °F 2.8 °F 3.2 °F 49% 30.09 in 10.0 mi SW 21.9 mph 29.9 mph N/A   Overcast
12:53 PM 23.0 °F 10.6 °F 6.1 °F 48% 30.25 in 10.0 mi SW 13.8 mph 27.6 mph N/A   Overcast
1:53 PM 21.9 °F 6.5 °F 7.0 °F 53% 30.24 in 10.0 mi SW 20.7 mph 25.3 mph N/A   Overcast
2:53 PM 21.9 °F 10.4 °F 7.0 °F 53% 30.27 in 10.0 mi WSW 11.5 mph 20.7 mph N/A   Overcast
3:53 PM 21.0 °F 9.3 °F 6.1 °F 53% 30.27 in 10.0 mi SSW 11.5 mph - N/A   Scattered Clouds
4:53 PM 19.9 °F 7.9 °F 3.9 °F 50% 30.28 in 10.0 mi WSW 11.5 mph - N/A   Clear
5:53 PM 19.9 °F 6.2 °F 6.1 °F 55% 30.27 in 10.0 mi SW 15.0 mph - N/A   Partly Cloudy
6:53 PM 16.0 °F 1.1 °F 5.0 °F 62% 30.30 in 10.0 mi SW 15.0 mph - N/A   Clear
7:53 PM 15.1 °F 2.5 °F 3.0 °F 59% 30.31 in 10.0 mi WSW 10.4 mph - N/A   Clear
8:53 PM 15.1 °F 0.5 °F 3.0 °F 59% 30.28 in 10.0 mi WSW 13.8 mph - N/A   Clear
9:53 PM 16.0 °F 2.9 °F 3.0 °F 57% 30.27 in 10.0 mi SW 11.5 mph - N/A   Clear
10:53 PM 16.0 °F 2.3 °F 3.0 °F 57% 30.25 in 10.0 mi SW 12.7 mph - N/A   Clear
11:53 PM 17.1 °F 3.6 °F 3.0 °F 54% 30.22 in 10.0 mi SW 12.7 mph - N/A   Clear